Weather History for Palmdale, CA

Change the Weather History Date:

Friday, February 14, 2014

  Actual Average Record
Temperature  
Mean Temperature 63 °F 48 °F  
Max Temperature 84 °F 61 °F 84 °F (2014)
Min Temperature 42 °F 35 °F 15 °F (1949)
Degree Days  
Heating Degree Days 2 17  
Month to date heating degree days 184 248  
Since 1 July heating degree days 1775 2032  
Cooling Degree Days 0 0  
Month to date cooling degree days 1 0  
Year to date cooling degree days 1 0  
Growing Degree Days 14 (Base 50)    
Moisture  
Dew Point 10 °F    
Average Humidity 17    
Maximum Humidity 28    
Minimum Humidity 5    
Precipitation  
Precipitation 0.00 in 0.07 in 1.46 in (1980)
Month to date precipitation T 0.83  
Year to date precipitation T 2.40  
Since 1 July precipitation 2.07 5.38  
Snow  
Snow 0.00 in - 0.00 in (1974)
Month to date snowfall 0.0  
Since 1 July snowfall 0.0  
Snow Depth 0.00 in    
Sea Level Pressure  
Sea Level Pressure 30.05 in    
Wind  
Wind Speed 10 mph (SW)    
Max Wind Speed 28 mph    
Max Gust Speed 32 mph    
Visibility 10 miles    
Events      
T = Trace of Precipitation, MM = Missing Value Source: NWS Daily Summary

Daily Weather History Graph

Daily Weather History Graph

Search for Another Location

Airport:

Trip Planner

Search our weather history database for the weather conditions in past years. The results will help you decide how hot, cold, wet, or windy it might be!

Date:

Astronomy

Feb. 14, 2014 Rise Set
Actual Time 6:38 AM PST 5:34 PM PST
Civil Twilight 6:12 AM PST 6:00 PM PST
Nautical Twilight 5:43 AM PST 6:30 PM PST
Astronomical Twilight 5:14 AM PST 6:59 PM PST
Moon 5:40 PM PST (2/14) 6:09 AM PST (2/14)
Length of Visible Light 11h 47m
Length of Day
10h 55m
Full, 100% of the Moon is Illuminated
Feb 14
Full
Feb 14
Full
Feb 22
Last Quarter
Mar 1
New
Mar 8
First Quarter

Hourly Weather History & Observations

Time (PST) Temp. Windchill Dew Point Humidity Pressure Visibility Wind Dir Wind Speed Gust Speed Precip Events Conditions
12:53 AM 53.1 °F - 10.9 °F 19% 30.05 in 10.0 mi SW 6.9 mph - N/A   Clear
1:53 AM 54.0 °F - 10.9 °F 18% 30.04 in 10.0 mi SSW 6.9 mph - N/A   Clear
2:53 AM 48.9 °F - 10.9 °F 22% 30.04 in 10.0 mi South 6.9 mph - N/A   Clear
3:53 AM 50.0 °F - 12.0 °F 22% 30.05 in 10.0 mi Variable 3.5 mph - N/A   Clear
4:53 AM 45.0 °F 43.5 °F 12.9 °F 27% 30.08 in 10.0 mi SE 3.5 mph - N/A   Clear
5:53 AM 45.0 °F 40.1 °F 14.0 °F 29% 30.10 in 10.0 mi South 9.2 mph - N/A   Clear
6:53 AM 46.9 °F - 14.0 °F 27% 30.10 in 10.0 mi South 5.8 mph - N/A   Clear
7:53 AM 51.1 °F - 19.0 °F 28% 30.10 in 10.0 mi SSE 3.5 mph - N/A   Clear
8:53 AM 64.0 °F - 21.9 °F 20% 30.09 in 10.0 mi South 3.5 mph - N/A   Clear
9:53 AM 72.0 °F - 19.9 °F 14% 30.08 in 10.0 mi Calm Calm - N/A   Clear
10:53 AM 80.1 °F - 6.1 °F 6% 30.07 in 10.0 mi WNW 21.9 mph - N/A   Clear
11:53 AM 82.0 °F - 7.0 °F 6% 30.05 in 10.0 mi WNW 17.3 mph - N/A   Clear
12:53 PM 82.9 °F - 5.0 °F 5% 30.03 in 10.0 mi West 19.6 mph 25.3 mph N/A   Clear
1:53 PM 84.0 °F - 5.0 °F 5% 30.01 in 10.0 mi WNW 21.9 mph - N/A   Clear
2:53 PM 82.0 °F - 3.9 °F 5% 30.01 in 10.0 mi WNW 24.2 mph - N/A   Clear
3:53 PM 80.1 °F - 6.1 °F 6% 30.01 in 10.0 mi WNW 20.7 mph - N/A   Clear
4:53 PM 77.0 °F - 8.1 °F 7% 30.02 in 10.0 mi WNW 16.1 mph - N/A   Clear
5:53 PM 72.0 °F - 6.1 °F 8% 30.04 in 10.0 mi WNW 13.8 mph - N/A   Clear
6:53 PM 66.0 °F - 6.1 °F 9% 30.05 in 10.0 mi West 9.2 mph - N/A   Clear
7:53 PM 66.9 °F - 7.0 °F 10% 30.05 in 10.0 mi West 5.8 mph - N/A   Clear
8:53 PM 64.0 °F - 8.1 °F 11% 30.04 in 10.0 mi SW 8.1 mph - N/A   Clear
9:53 PM 53.1 °F - 10.0 °F 18% 30.05 in 10.0 mi SE 5.8 mph - N/A   Clear
10:53 PM 53.1 °F - 10.9 °F 19% 30.03 in 10.0 mi Variable 3.5 mph - N/A   Clear
11:53 PM 51.1 °F - 10.9 °F 20% 30.03 in 10.0 mi South 8.1 mph - N/A   Clear